• In Denmark
  • List of Countries
  • For 7 days
  • Water Temperature
  • Satellite Maps
  • Weather Map
  • Weather Widgets
  • user-avatar
    Login

    Hourly Weather Kitzbuhel

    Today, 24 January, Wednesday

    Time Temperature Precipitation Wind Pressure Humidity
    00:00 -3°C° 0 mm 2 mps 682 mmHg 72%
    01:00 -2°C° 0 mm 2 mps 682 mmHg 67%
    02:00 -2°C° 0 mm 2 mps 682 mmHg 67%
    03:00 -2°C° 0 mm 2 mps 682 mmHg 66%
    04:00 -2°C° 0 mm 2 mps 682 mmHg 65%
    05:00 -2°C° 0 mm 2 mps 682 mmHg 64%
    06:00 -2°C° 0 mm 2 mps 682 mmHg 63%
    07:00 -2°C° 0 mm 2 mps 682 mmHg 63%
    08:00 +1°C° 0 mm 2 mps 682 mmHg 66%
    09:00 +3°C° 0 mm 1 mps 683 mmHg 69%
    10:00 +5°C° 0 mm 1 mps 683 mmHg 72%
    11:00 +6°C° 0 mm 1 mps 682 mmHg 78%
    12:00 +7°C° 0 mm 1 mps 682 mmHg 83%
    13:00 +8°C° 0 mm 1 mps 682 mmHg 88%
    14:00 +7°C° 0 mm 1 mps 682 mmHg 87%
    15:00 +7°C° 0 mm 1 mps 681 mmHg 85%
    16:00 +5°C° 0 mm 2 mps 681 mmHg 83%
    17:00 +4°C° 0 mm 2 mps 681 mmHg 79%
    18:00 +3°C° 0 mm 2 mps 681 mmHg 76%
    19:00 +1°C° 0 mm 2 mps 680 mmHg 72%
    20:00 +1°C° 0 mm 2 mps 680 mmHg 71%
    21:00 +1°C° 0 mm 2 mps 680 mmHg 69%
    22:00 +1°C° 0 mm 2 mps 680 mmHg 68%
    23:00 -1°C° 0 mm 2 mps 680 mmHg 67%

    Tomorrow, 25 January, Thursday

    Time Temperature Precipitation Wind Pressure Humidity
    00:00 -1°C° 0 mm 2 mps 680 mmHg 66%
    01:00 -1°C° 0 mm 2 mps 680 mmHg 66%
    02:00 -1°C° 0 mm 2 mps 680 mmHg 65%
    03:00 -1°C° 0 mm 2 mps 679 mmHg 65%
    04:00 -1°C° 0 mm 2 mps 679 mmHg 64%
    05:00 -1°C° 0 mm 2 mps 679 mmHg 64%
    06:00 -1°C° 0 mm 2 mps 679 mmHg 64%
    07:00 -1°C° 0 mm 2 mps 679 mmHg 64%
    08:00 +1°C° 0 mm 2 mps 678 mmHg 67%
    09:00 +2°C° 0 mm 2 mps 678 mmHg 70%
    10:00 +3°C° 0 mm 2 mps 678 mmHg 73%
    11:00 +4°C° 0 mm 2 mps 678 mmHg 77%
    12:00 +5°C° 0 mm 2 mps 677 mmHg 80%
    13:00 +6°C° 0 mm 2 mps 677 mmHg 84%
    14:00 +5°C° 0 mm 2 mps 676 mmHg 85%
    15:00 +5°C° 0 mm 2 mps 676 mmHg 86%
    16:00 +4°C° 0 mm 2 mps 675 mmHg 88%
    17:00 +3°C° 0 mm 2 mps 675 mmHg 88%
    18:00 +2°C° 0 mm 2 mps 675 mmHg 87%
    19:00 +1°C° 0 mm 2 mps 675 mmHg 87%
    20:00 +1°C° 0 mm 2 mps 675 mmHg 87%
    21:00 +1°C° 0 mm 2 mps 675 mmHg 87%
    22:00 +1°C° 0 mm 2 mps 675 mmHg 87%
    23:00 +1°C° 0 mm 2 mps 675 mmHg 87%

    Day after tomorrow, 26 January, Friday

    Time Temperature Precipitation Wind Pressure Humidity
    00:00 +1°C° 0 mm 2 mps 674 mmHg 86%
    01:00 +1°C° 0 mm 2 mps 674 mmHg 86%
    02:00 +1°C° 0 mm 2 mps 674 mmHg 86%
    03:00 +1°C° 0 mm 2 mps 674 mmHg 86%
    04:00 +1°C° 0 mm 2 mps 673 mmHg 86%
    05:00 +1°C° 0 mm 2 mps 673 mmHg 86%
    06:00 +1°C° 0 mm 2 mps 673 mmHg 86%
    07:00 +1°C° 0 mm 2 mps 673 mmHg 86%
    08:00 +2°C° 0 mm 2 mps 674 mmHg 87%
    09:00 +3°C° 0 mm 2 mps 674 mmHg 88%
    10:00 +3°C° 0 mm 2 mps 674 mmHg 89%
    11:00 +4°C° 0 mm 2 mps 674 mmHg 89%
    12:00 +4°C° 0 mm 2 mps 674 mmHg 89%
    13:00 +5°C° 0 mm 2 mps 674 mmHg 90%
    14:00 +4°C° 0 mm 2 mps 674 mmHg 91%
    15:00 +4°C° 0 mm 2 mps 674 mmHg 92%
    16:00 +4°C° 0 mm 2 mps 675 mmHg 94%
    17:00 +3°C° 0 mm 2 mps 675 mmHg 94%
    18:00 +3°C° 0 mm 1 mps 675 mmHg 95%
    19:00 +2°C° 0 mm 1 mps 675 mmHg 96%
    20:00 +2°C° 0 mm 1 mps 676 mmHg 95%
    21:00 +1°C° 0 mm 1 mps 676 mmHg 95%
    22:00 +1°C° 0 mm 1 mps 676 mmHg 95%
    23:00 +1°C° 0 mm 1 mps 677 mmHg 95%

    27 January, Saturday

    Time Temperature Precipitation Wind Pressure Humidity
    00:00 +1°C° 0 mm 1 mps 677 mmHg 94%
    01:00 +1°C° 0 mm 1 mps 677 mmHg 94%
    02:00 +1°C° 0.1 mm 1 mps 677 mmHg 95%
    03:00 +1°C° 0.1 mm 1 mps 678 mmHg 95%
    04:00 +1°C° 0.1 mm 0 mps 678 mmHg 95%
    05:00 0°C° 0.1 mm 0 mps 678 mmHg 95%
    06:00 0°C° 0.1 mm 0 mps 679 mmHg 96%
    07:00 0°C° 0.1 mm 0 mps 679 mmHg 96%
    08:00 +2°C° 0 mm 1 mps 680 mmHg 95%
    09:00 +3°C° 0 mm 1 mps 681 mmHg 94%
    10:00 +3°C° 0 mm 1 mps 681 mmHg 94%
    11:00 +4°C° 0 mm 1 mps 682 mmHg 94%
    12:00 +4°C° 0 mm 1 mps 682 mmHg 94%
    13:00 +4°C° 0 mm 1 mps 682 mmHg 94%
    14:00 +4°C° 0.1 mm 1 mps 683 mmHg 94%
    15:00 +4°C° 0.1 mm 1 mps 683 mmHg 95%
    16:00 +4°C° 0.1 mm 1 mps 683 mmHg 95%
    17:00 +3°C° 0.1 mm 1 mps 684 mmHg 95%
    18:00 +2°C° 0.1 mm 0 mps 684 mmHg 96%
    19:00 +1°C° 0.1 mm 0 mps 685 mmHg 96%
    20:00 +1°C° 0 mm 0 mps 685 mmHg 96%
    21:00 0°C° 0 mm 0 mps 685 mmHg 95%
    22:00 0°C° 0 mm 0 mps 686 mmHg 95%
    23:00 -1°C° 0 mm 0 mps 686 mmHg 94%

    28 January, Sunday

    Time Temperature Precipitation Wind Pressure Humidity
    00:00 -1°C° 0 mm 0 mps 686 mmHg 93%
    01:00 -1°C° 0 mm 0 mps 686 mmHg 92%
    02:00 -1°C° 0 mm 0 mps 686 mmHg 90%
    03:00 0°C° 0 mm 1 mps 686 mmHg 89%
    04:00 0°C° 0 mm 1 mps 686 mmHg 88%
    05:00 0°C° 0 mm 1 mps 686 mmHg 87%
    06:00 -1°C° 0 mm 1 mps 686 mmHg 86%
    07:00 -1°C° 0 mm 1 mps 687 mmHg 84%
    08:00 +1°C° 0 mm 1 mps 687 mmHg 84%
    09:00 +2°C° 0 mm 1 mps 688 mmHg 83%
    10:00 +3°C° 0 mm 1 mps 688 mmHg 83%
    11:00 +4°C° 0 mm 1 mps 688 mmHg 83%
    12:00 +5°C° 0 mm 1 mps 688 mmHg 84%
    13:00 +6°C° 0 mm 1 mps 688 mmHg 85%
    14:00 +5°C° 0 mm 1 mps 688 mmHg 86%
    15:00 +5°C° 0 mm 1 mps 687 mmHg 87%
    16:00 +4°C° 0 mm 0 mps 687 mmHg 88%
    17:00 +3°C° 0 mm 1 mps 687 mmHg 87%
    18:00 +2°C° 0 mm 1 mps 688 mmHg 86%
    19:00 +1°C° 0 mm 1 mps 688 mmHg 85%
    20:00 +1°C° 0 mm 1 mps 688 mmHg 83%
    21:00 +1°C° 0 mm 1 mps 688 mmHg 82%
    22:00 -2°C° 0 mm 2 mps 688 mmHg 80%
    23:00 0°C° 0 mm 1 mps 688 mmHg 78%

    29 January, Monday

    Time Temperature Precipitation Wind Pressure Humidity
    00:00 0°C° 0 mm 1 mps 688 mmHg 76%
    01:00 0°C° 0 mm 1 mps 688 mmHg 74%
    02:00 0°C° 0 mm 1 mps 688 mmHg 72%
    03:00 0°C° 0 mm 1 mps 688 mmHg 69%
    04:00 +1°C° 0 mm 1 mps 688 mmHg 67%
    05:00 +1°C° 0 mm 1 mps 688 mmHg 66%
    06:00 +1°C° 0 mm 1 mps 688 mmHg 64%
    07:00 +1°C° 0 mm 1 mps 688 mmHg 63%
    08:00 +2°C° 0 mm 1 mps 688 mmHg 64%
    09:00 +3°C° 0 mm 1 mps 688 mmHg 66%
    10:00 +4°C° 0 mm 1 mps 688 mmHg 68%
    11:00 +5°C° 0 mm 1 mps 688 mmHg 71%
    12:00 +5°C° 0 mm 0 mps 688 mmHg 75%
    13:00 +6°C° 0 mm 0 mps 687 mmHg 78%
    14:00 +5°C° 0 mm 0 mps 687 mmHg 79%
    15:00 +5°C° 0 mm 0 mps 687 mmHg 80%
    16:00 +5°C° 0 mm 0 mps 686 mmHg 81%
    17:00 +3°C° 0 mm 0 mps 686 mmHg 81%
    18:00 +2°C° 0 mm 0 mps 686 mmHg 81%
    19:00 +2°C° 0 mm 1 mps 686 mmHg 81%
    20:00 +2°C° 0 mm 1 mps 686 mmHg 81%
    21:00 +2°C° 0 mm 1 mps 686 mmHg 80%
    22:00 +2°C° 0 mm 1 mps 685 mmHg 80%
    23:00 +1°C° 0 mm 1 mps 685 mmHg 79%
    Show more